Location: Poughquag
(41.6090°N, 73.6820°W)
Time: 23:58:54
(UTC-05:00)

Vanguard 1 Rocket - Visible Passes

Search period start: 28 November 2023 00:00
Search period end: 08 December 2023 00:00
Orbit: 656 x 4218 km, 34.3° (Epoch: 28 November)

Date Brightness Start Highest point End Pass type
(mag) Time Alt. Az. Time Alt. Az. Time Alt. Az.
28 Nov 11.6 03:06:28 10° S 03:16:57 16° SE 03:25:09 10° ESE visible
28 Nov 10.6 05:29:17 10° SW 05:45:19 36° SSE 05:54:33 10° E visible
29 Nov 11.0 04:15:52 10° SSW 04:32:15 29° SSE 04:42:39 10° E visible
30 Nov 11.3 03:03:56 10° S 03:18:49 22° SE 03:29:33 10° ESE visible
30 Nov 10.3 05:29:38 10° SW 05:47:20 43° SSE 05:57:07 10° E visible
01 Dec 11.7 01:55:07 10° SSE 02:05:11 14° SE 02:13:39 10° ESE visible
01 Dec 10.7 04:15:30 10° SSW 04:34:10 36° SSE 04:45:28 10° E visible
02 Dec 11.1 03:02:36 10° SSW 03:20:36 28° SSE 03:32:56 10° E visible
02 Dec 10.2 05:30:15 10° SW 05:49:18 50° SSE 05:59:34 10° E visible
03 Dec 11.5 01:51:44 10° S 02:06:51 20° SE 02:18:42 10° ESE visible
03 Dec 10.6 04:15:34 10° SW 04:36:00 43° SSE 04:48:03 10° E visible
04 Dec 11.8 00:45:52 10° SSE 00:53:05 12° SE 00:59:43 10° ESE visible
04 Dec 10.9 03:01:57 10° SSW 03:22:17 35° SSE 03:35:49 10° E visible
04 Dec 10.1 05:31:05 10° WSW 05:51:14 56° SSE 06:01:55 10° E visible
05 Dec 11.3 01:55:23 17° S 02:08:22 26° SE 02:22:21 10° E visible
05 Dec 10.4 04:15:57 10° SW 04:37:47 50° SSE 04:50:28 10° E visible
06 Dec 11.6 00:50:09 17° SSE 00:54:30 17° SE 01:06:26 10° ESE visible
06 Dec 10.8 03:07:35 20° SSW 03:23:53 42° SSE 03:38:24 10° E visible
06 Dec 10.0 05:32:06 10° WSW 05:53:07 61° S 06:04:12 10° E visible
07 Dec 11.1 02:01:40 27° S 02:09:48 33° SE 02:25:22 10° E visible
07 Dec 10.3 04:19:03 14° SW 04:39:32 56° SSE 04:52:45 10° E visible
